Wind_Speed
20 20 20 21 21 21 21 21 21 21 22 22 22 23 23 23 24 25 24 24 24 25 25 26 26 27 28 28 29 30 30 31 31 31 31 31 31 32
21 21 21 22 22 22 22 23 24 24 23 24 24 24 25 25 25 26 27 27 27 27 28 29 29 30 30 30 31 32 32 32 33 33 34 34 35 35
21 21 22 23 24 24 25 25 25 25 25 26 27 27 27 27 27 28 29 29 29 29 30 31 31 32 32 32 32 32 33 33 33 34 35 35 35 35
21 22 23 24 25 26 26 27 27 27 27 27 28 29 29 29 28 29 29 30 31 31 32 33 34 34 33 33 33 34 33 33 34 35 36 36 36 36
21 22 24 25 25 26 26 27 27 27 28 28 29 30 30 30 30 31 31 31 32 32 33 33 34 34 34 34 35 34 35 35 36 37 38 39 39 39
22 23 24 24 25 25 26 26 27 28 29 30 29 30 31 32 32 31 32 33 33 33 34 35 35 35 35 35 35 36 38 39 39 40 40 40 41 41
22 23 24 25 25 25 25 26 27 28 29 29 30 30 31 31 31 31 32 33 34 34 36 36 36 37 37 37 38 39 40 40 41 42 43 43 44 45
22 22 22 23 25 25 26 26 27 28 30 31 31 31 30 31 31 32 33 34 34 35 36 37 37 38 38 39 40 41 42 42 43 44 45 46 47 47
21 22 22 23 24 24 25 27 28 29 30 32 30 30 31 32 32 33 34 35 35 36 37 38 39 39 40 41 42 43 43 43 44 45 46 47 48 48
22 23 23 24 24 24 25 25 26 27 28 29 30 30 32 32 33 34 35 36 37 37 38 39 40 40 41 42 44 44 45 46 47 48 49 49 50 51
23 24 24 24 24 25 25 25 26 27 27 28 29 30 30 31 32 33 35 36 36 37 38 39 39 40 41 43 44 46 47 48 48 49 49 50 50 50
23 24 24 25 26 26 27 27 27 28 29 29 30 31 31 32 33 35 36 37 38 38 39 40 40 42 42 44 45 47 48 49 49 49 49 49 49 49
24 25 26 27 27 27 27 28 29 30 31 31 32 33 34 34 35 36 37 38 38 39 39 40 40 41 42 43 45 47 48 47 47 48 48 48 48 49
25 26 27 27 28 28 29 30 30 31 32 32 33 34 34 35 36 36 36 37 38 38 38 39 39 40 41 42 44 45 46 45 45 46 46 47 47 48
26 26 27 28 28 28 29 30 31 31 32 33 33 34 34 35 35 36 36 36 37 38 38 38 39 40 41 42 42 43 43 43 44 44 44 44 45 45
26 27 28 29 29 30 30 31 31 31 31 32 33 33 34 35 35 36 36 36 37 37 38 38 38 39 40 41 41 42 42 42 42 43 43 43 43 43
27 28 29 29 30 30 31 31 31 31 32 32 33 34 34 35 35 35 36 36 37 37 38 38 39 39 39 39 39 40 40 40 40 40 40 39 39 38
28 29 29 30 30 30 31 31 32 32 33 33 34 35 35 35 35 36 36 37 37 38 38 38 38 39 39 38 37 37 37 37 37 37 37 36 36 35
29 29 30 31 31 31 31 32 32 33 33 33 34 34 35 36 36 37 37 38 38 38 38 37 37 36 36 35 36 36 35 35 34 34 34 33 32 32
29 30 31 31 32 32 32 33 33 33 33 34 35 36 36 37 38 38 38 38 38 38 37 36 35 35 34 34 34 34 34 34 33 33 32 31 31 31
30 31 31 31 32 32 33 33 34 34 34 35 36 37 38 38 38 38 38 38 37 36 36 35 34 34 34 34 33 33 33 32 32 31 31 30 30 29
30 30 31 31 31 32 33 34 34 35 36 36 37 37 37 37 37 37 37 36 36 35 35 34 34 33 33 32 32 32 32 31 31 30 30 29 29 28
30 30 31 31 32 33 33 34 35 35 35 36 36 36 35 35 35 34 34 34 34 33 33 33 32 32 32 32 31 31 30 30 29 29 29 28 28 28
Wind_Direction
265 265 265 267 267 267 267 268 269 269 271 273 276 276 275 275 274 273 272 273 275 276 276 275 275 275 274 274 275 276 277 276 276 276 277 278 278 278
265 265 266 267 268 268 269 269 269 270 270 272 275 275 275 275 275 274 275 275 276 276 277 276 276 275 276 276 276 276 277 276 276 276 277 278 278 278
266 266 267 268 269 269 270 270 270 271 270 270 273 275 276 276 275 273 271 272 273 274 275 277 277 277 277 277 277 277 277 276 277 278 278 279 279 279
268 268 270 271 270 269 270 270 271 272 272 271 273 274 275 274 273 272 272 273 275 277 277 277 277 277 277 277 277 277 278 278 279 280 281 280 280 279
270 271 272 274 274 274 274 273 272 272 273 274 274 275 276 274 273 272 273 275 276 278 278 277 277 277 277 277 278 278 278 279 280 281 281 280 280 280
272 274 275 276 276 275 276 276 274 275 275 276 275 277 278 277 275 274 274 275 275 277 278 277 276 277 277 277 277 277 278 279 280 281 280 280 279 280
275 276 276 277 277 277 277 277 277 276 277 279 280 279 279 278 276 276 277 276 277 278 279 278 277 277 277 278 278 279 280 280 280 280 280 280 280 280
279 282 282 281 279 278 278 279 279 279 279 279 279 280 278 276 276 276 277 278 279 279 279 279 278 278 280 280 280 281 282 281 281 282 282 282 281 281
281 283 284 285 284 282 282 281 282 282 280 280 281 279 278 278 278 278 277 279 280 281 280 280 281 281 281 282 283 283 283 283 283 284 284 284 283 283
283 284 285 285 285 283 284 285 286 285 284 283 282 283 282 281 280 280 280 281 281 281 281 281 282 283 283 283 284 285 284 285 285 285 285 284 284 283
282 284 286 287 286 286 286 286 286 286 285 285 286 285 285 285 285 284 285 284 284 284 284 284 284 284 285 285 285 286 287 286 286 286 286 285 285 285
284 286 288 288 288 289 288 287 287 286 287 287 286 286 287 287 287 287 288 288 287 286 286 287 287 287 287 288 289 289 289 289 289 288 288 288 287 287
287 288 289 290 290 290 289 288 289 288 288 289 289 289 290 290 290 289 289 288 288 288 288 288 289 289 289 290 291 291 290 291 290 290 290 289 288 287
289 289 290 291 291 291 292 291 291 290 290 290 290 291 292 292 292 291 291 290 290 290 290 291 291 291 291 291 292 292 293 292 292 292 292 291 289 289
289 289 290 292 292 293 293 292 291 291 291 292 292 293 293 294 294 293 293 293 293 293 294 294 293 293 293 294 294 294 294 294 294 294 293 293 293 292
290 291 292 295 295 295 295 295 294 294 294 294 295 295 295 295 295 295 295 294 295 296 297 296 297 297 296 296 296 296 295 295 295 295 295 295 294 294
293 295 296 296 296 296 297 296 296 296 296 296 296 297 297 298 297 297 297 298 299 299 299 298 298 298 298 299 299 299 298 298 298 298 297 297 297 297
296 296 297 298 297 297 297 297 297 297 297 297 297 297 298 299 299 299 299 299 299 300 300 299 299 300 300 300 300 300 300 300 301 301 300 300 300 299
297 298 298 298 298 298 298 297 298 298 298 299 299 299 300 300 300 300 300 301 301 301 300 300 300 300 301 302 302 302 302 302 302 303 303 303 303 302
298 298 298 298 298 298 298 298 299 299 299 300 300 300 300 300 301 301 301 301 301 301 301 301 300 300 301 302 302 302 302 303 303 303 304 304 304 304
299 299 299 299 299 300 300 300 300 300 301 301 301 301 301 301 301 301 301 301 301 301 300 300 300 300 301 302 303 303 303 303 303 303 304 304 305 305
300 300 300 300 300 301 301 301 302 302 302 303 303 302 302 302 302 302 301 301 301 301 300 300 300 300 301 302 303 304 304 304 303 302 302 302 304 305
302 302 301 301 301 302 302 303 303 304 304 305 305 305 305 304 304 303 303 302 302 301 301 301 301 301 302 303 303 304 304 304 303 303 303 303 304 305
Height
5880 5880 5880 5880 5880 5880 5880 5880 5881 5880 5880 5879 5879 5878 5877 5876 5876 5876 5875 5875 5874 5874 5873 5872 5872 5871 5870 5870 5869 5868 5867 5866 5865 5864 5863 5861 5860 5859
5875 5875 5876 5875 5875 5875 5875 5875 5875 5875 5874 5874 5873 5872 5871 5870 5870 5870 5869 5868 5868 5867 5867 5866 5865 5864 5863 5862 5861 5860 5859 5858 5857 5855 5854 5853 5852 5851
5870 5870 5870 5870 5870 5870 5869 5869 5869 5868 5868 5868 5867 5866 5865 5864 5863 5863 5862 5861 5861 5860 5859 5858 5857 5856 5855 5854 5853 5851 5850 5849 5848 5846 5845 5844 5842 5841
5865 5865 5865 5864 5864 5864 5863 5863 5862 5862 5861 5861 5860 5859 5858 5857 5856 5856 5855 5854 5853 5852 5851 5850 5849 5848 5846 5845 5844 5843 5841 5840 5838 5837 5836 5834 5832 5831
5860 5859 5859 5858 5858 5857 5856 5856 5855 5855 5854 5854 5853 5852 5851 5850 5849 5848 5847 5846 5845 5844 5843 5841 5840 5839 5837 5836 5835 5833 5832 5831 5829 5827 5825 5824 5822 5820
5854 5853 5853 5852 5851 5850 5850 5849 5848 5848 5847 5846 5845 5844 5843 5842 5841 5840 5839 5838 5837 5835 5833 5832 5831 5829 5828 5826 5825 5823 5822 5820 5818 5817 5815 5812 5810 5809
5848 5847 5846 5845 5844 5843 5842 5842 5841 5840 5839 5838 5837 5836 5835 5833 5832 5831 5830 5828 5827 5826 5824 5822 5821 5819 5818 5816 5814 5813 5811 5809 5807 5805 5803 5801 5799 5797
5842 5841 5840 5839 5838 5837 5836 5835 5833 5832 5832 5830 5829 5828 5827 5825 5824 5822 5821 5819 5818 5817 5814 5812 5810 5809 5807 5805 5803 5801 5799 5797 5795 5793 5791 5789 5786 5784
5837 5836 5834 5833 5832 5830 5829 5828 5826 5825 5824 5822 5821 5820 5818 5817 5815 5814 5812 5810 5809 5807 5805 5803 5801 5798 5796 5794 5792 5789 5787 5785 5782 5780 5778 5775 5772 5770
5831 5830 5829 5827 5826 5824 5823 5821 5819 5818 5816 5814 5813 5812 5810 5808 5806 5805 5803 5800 5799 5797 5795 5793 5790 5788 5785 5783 5780 5777 5775 5772 5769 5766 5764 5761 5759 5756
5825 5824 5823 5821 5819 5818 5816 5815 5813 5811 5809 5807 5806 5804 5802 5799 5797 5795 5793 5791 5788 5786 5784 5781 5779 5776 5773 5771 5767 5764 5762 5758 5755 5752 5750 5747 5744 5741
5820 5818 5817 5815 5813 5811 5810 5808 5806 5804 5802 5800 5798 5796 5793 5791 5788 5786 5783 5781 5778 5776 5773 5770 5767 5764 5761 5758 5755 5751 5748 5745 5741 5738 5735 5732 5729 5726
5814 5812 5811 5809 5807 5805 5803 5801 5799 5797 5794 5792 5789 5787 5784 5782 5779 5776 5773 5770 5767 5765 5762 5759 5756 5752 5749 5746 5742 5738 5735 5731 5727 5724 5721 5718 5714 5711
5808 5806 5804 5802 5800 5798 5795 5793 5791 5788 5786 5783 5780 5778 5775 5772 5769 5766 5763 5760 5757 5754 5751 5748 5744 5741 5737 5734 5730 5726 5722 5718 5714 5711 5707 5704 5700 5696
5801 5799 5797 5795 5792 5790 5787 5785 5782 5780 5777 5774 5771 5768 5765 5762 5759 5755 5752 5749 5746 5743 5740 5736 5733 5729 5726 5722 5718 5714 5710 5706 5702 5698 5694 5690 5686 5683
5794 5792 5790 5787 5785 5782 5779 5777 5774 5771 5768 5766 5762 5759 5756 5752 5749 5746 5742 5739 5736 5732 5728 5725 5721 5718 5714 5710 5706 5702 5698 5694 5690 5686 5681 5677 5673 5669
5787 5785 5782 5780 5777 5774 5771 5769 5766 5763 5760 5757 5753 5750 5747 5743 5740 5736 5733 5729 5725 5722 5718 5714 5710 5707 5703 5699 5694 5690 5686 5682 5678 5674 5670 5665 5661 5658
5780 5778 5775 5772 5769 5767 5764 5761 5757 5754 5751 5748 5744 5741 5737 5734 5730 5726 5723 5719 5715 5711 5708 5704 5699 5695 5691 5688 5684 5679 5675 5671 5667 5663 5659 5655 5651 5647
5773 5770 5767 5765 5762 5759 5755 5752 5749 5745 5742 5739 5735 5731 5728 5724 5720 5717 5713 5709 5705 5701 5697 5693 5689 5685 5681 5677 5673 5669 5665 5661 5657 5653 5649 5645 5642 5638
5765 5762 5759 5756 5753 5750 5746 5743 5740 5736 5733 5729 5726 5722 5718 5714 5710 5706 5702 5698 5694 5690 5686 5682 5678 5675 5671 5668 5664 5660 5656 5652 5648 5644 5641 5637 5633 5629
5757 5754 5751 5747 5744 5741 5738 5734 5731 5727 5723 5720 5716 5712 5707 5703 5699 5695 5691 5687 5683 5679 5675 5672 5668 5665 5661 5658 5654 5651 5647 5643 5639 5636 5632 5629 5625 5622
5748 5745 5742 5739 5735 5732 5729 5725 5721 5717 5713 5709 5705 5701 5696 5692 5688 5684 5680 5676 5672 5669 5665 5662 5658 5655 5652 5648 5645 5641 5638 5634 5630 5627 5624 5621 5617 5614
5740 5737 5733 5730 5727 5723 5720 5716 5712 5708 5703 5699 5695 5690 5686 5682 5678 5674 5670 5666 5662 5659 5655 5652 5649 5645 5642 5639 5636 5632 5629 5626 5622 5619 5616 5612 5609 5606